Regional Weather Roundup
Issued by NWS Sterling, VA

Home | Current Version | Previous Version | Graphics & Text | Print | Product List | Glossary On
Versions: 1 2 3 4 5 6 7 8 9 10 11 12 13 14 15 16 17 18 19 20 21 22 23 24 25 26 27 28 29 30 31 32 33 34 35 36 37 38 39 40 41 42 43 44 45 46 47 48 49 50
000
ASUS41 KLWX 281410
RWRLWX

REGIONAL WEATHER ROUNDUP
NATIONAL WEATHER SERVICE BALTIMORE MD/WASHINGTON DC
900 AM EST WED JAN 28 2015

Note: "FAIR" indicates few or no clouds below 12,000 feet
with no significant weather and/or obstructions to visibility.
 TC=TEMPERATURE CELSIUS

 * =Non NWS site. Station does not report precipitation (e.g. rain,
    snow, etc.), thunder, or fog.

DCZ001-MDZ009-015-VAZ040>042-051-053>054-281500-
WASHINGTON METRO

CITY           SKY/WX    TMP DP  RH WIND       PRES   REMARKS
WASHINGTON NAT SUNNY     27   7  42 NW14G24   30.22R WCI  16
DULLES         SUNNY     23   7  50 NW15      30.21R WCI  10
ANDREWS AFB    SUNNY     24   8  49 NW18G25   30.19R WCI  10
FT BELVOIR     SUNNY     25   6  44 NW17G29   30.23R WCI  12
QUANTICO       SUNNY     27   8  44 N13G20    30.24R WCI  16
COLLEGE PARK*  SUNNY     27   9  46 NW7       30.20R
LEESBURG*      SUNNY     25  12  58 N16G25    30.23R WCI  12
MANASSAS*      SUNNY     25  12  58 N2          N/A
GAITHERSBURG*  SUNNY     19   5  53 NW14      30.22R WCI   6

$$

MDZ006>007-011-014-281500-
BALTIMORE METRO

CITY           SKY/WX    TMP DP  RH WIND       PRES   REMARKS
BWI AIRPORT    SUNNY     24   4  42 NW13G20   30.18R WCI  12
MD SCIENCE CTR   N/A     24   2  38 MISG      30.19R
MARTIN STATE   SUNNY    N/A N/A N/A NW14      30.20R
ANNAPOLIS      SUNNY     25   8  48 NW14      30.19R WCI  13
FORT MEADE*    SUNNY     25   9  50 NW7       30.22R

$$

MDZ012-015-019>023-281500-
MARYLAND EASTERN SHORE

CITY           SKY/WX    TMP DP  RH WIND       PRES   REMARKS
OCEAN CITY     SUNNY     25   6  44 NW16G31   30.13R WCI  12
SALISBURY      SUNNY     28   6  39 NW18G25   30.15R WCI  15
BAY BRIDGE AP*   N/A     27   7  43 NW9       30.20R WCI  17
CAMBRIDGE*     SUNNY     30  10  43 NW15      30.17R WCI  19
EASTON*        SUNNY     27  10  50 NW18G25   30.21R WCI  13

$$

MDZ017>025-281500-
SOUTHERN MARYLAND

CITY           SKY/WX    TMP DP  RH WIND       PRES   REMARKS
PATUXENT RIVER SUNNY     26   9  48 NW17      30.19R WCI  13
ST INIGOES     SUNNY     26   8  46 NW8G18    30.19R WCI  18
LEONARDTOWN*   SUNNY     27   9  46 NW7G17    30.21R

$$

MDZ003>005-281500-
NORTH CENTRAL MARYLAND

CITY           SKY/WX    TMP DP  RH WIND       PRES   REMARKS
FREDERICK*     SUNNY     25   1  36 NW8       30.24R WCI  16
HAGERSTOWN APT SUNNY     20   4  50 NW9       30.21R WCI   9
WESTMINSTER*   MOSUNNY   19   1  45 NW9       30.16R WCI   9

$$

MDZ501>502-281500-
WESTERN MARYLAND

CITY           SKY/WX    TMP DP  RH WIND       PRES   REMARKS
OAKLAND*       MOSUNNY   10 N/A N/A CALM      30.12S HAZE
CUMBERLAND*    SUNNY     21   9  58 NE3       30.31R

$$

VAZ025>031-281500-
SHENANDOAH VALLEY

CITY           SKY/WX    TMP DP  RH WIND       PRES   REMARKS
WINCHESTER*    SUNNY     25   5  42 NW12G18   30.22R WCI  14
FRONT ROYAL*   FAIR      27   3  36 CALM      30.21R
LURAY*         FAIR      28  16  59 CALM      30.21R
NEW MARKET*    FAIR      19  14  82 CALM      30.21R
STAUNTON*      SUNNY     24  16  70 CALM      30.21R
WAYNESBORO*    FAIR      22  12  66 W7        30.17R

$$

WVZ021-048>050-054>055-281500-
EASTERN WEST VIRGINIA PANHANDLE

CITY           SKY/WX    TMP DP  RH WIND       PRES   REMARKS
MARTINSBURG    SUNNY     23   6  48 NW7       30.23R
PETERSBURG*    SUNNY     13  11  91 CALM      30.26R FOG

$$

VAZ036>039-050-281500-
CENTRAL FOOTHILLS

CITY           SKY/WX    TMP DP  RH WIND       PRES   REMARKS
CHARLOTTESVILL SUNNY     32   4  30 CALM      30.17R
CULPEPER*      SUNNY     30   7  37 N9        30.21R WCI  22
ORANGE*        SUNNY     28  16  59 CALM      30.21R
GORDONSVILLE*  FAIR      25  16  68 CALM      30.19R
WARRENTON*     FAIR      29  14  53 N6        30.20R

$$

VAZ055>057-281500-
NORTH AND CENTRAL PIEDMONT

CITY           SKY/WX    TMP DP  RH WIND       PRES   REMARKS
FREDERICKSBRG* SUNNY     29  10  44 N9G18     30.22R WCI  20
STAFFORD*      SUNNY     27   6  42 N10G16    30.26R WCI  17

$$

NCZ024-NYZ072-PAZ021-071-VAZ022-071-281500-
OTHER REGIONAL OBSERVATIONS

CITY           SKY/WX    TMP DP  RH WIND       PRES   REMARKS
NEW YORK CITY  MOSUNNY   19  -1  41 NW13G24   30.04R WCI   6
PHILADELPHIA   MOSUNNY   22   0  38 NW17G25   30.13R WCI   8
PITTSBURGH     PTSUNNY   12   9  87 W7        30.30R
ROANOKE        SUNNY     27  13  55 NW9       30.24R WCI  18
RICHMOND       SUNNY     29  11  47 N12       30.21R WCI  19
RALEIGH        SUNNY     29  14  53 CALM      30.22R

$$

ANZ530>537-281500-
MARINE OBSERVATIONS

STATION/POSITION TIME  TEMP    WIND        PRES
                       AIR SEA DIR/SP/G
                 (UTC) (F)     (DEG/KT/KT) (MB)
THOMAS PT LIGHT  1400   24 36  320/ 10/ 13 1023.5R
BALT KEY BRIDGE  1400   24     300/ 15/ 19 1021.9R
COVE POINT       1400   24     350/ 21/ 23 1022.0R
LEWISETTA        1400   26 36  340/ 15/ 23 1022.5R
SOLOMONS ISLAND  1400      37                N/A
PINEY POINT      1400          340/ 17/ 19   N/A

$$



USA.gov is the U.S. government's official web portal to all federal, state and local government web resources and services.